Tracking 23611 objects as of 18-Sep-2021
HD Live streaming from Space Station
objects crossing your sky now
Track INSPIRATION-4

MARISAT 1

Track MARISAT 1 now!
MARISAT 1 is classified as:


NORAD ID: 8697
Int'l Code: 1976-017A
Perigee: 36,033.7 km
Apogee: 36,154.7 km
Inclination: 9.8 °
Period: 1,451.5 minutes
Semi major axis: 42465 km
RCS: 5.8066 m2 (large)
Launch date: February 19, 1976
Source: United States (US)
Launch site: AIR FORCE EASTERN TEST RANGE (AFETR)
aabbcc
Your satellite tracking list
Your tracking list is empty




NASA's NSSDC Master Catalog

Two Line Element Set (TLE):
1 08697U 76017A   21260.62677785 -.00000142  00000-0  00000-0 0  9998
2 08697   9.8473 309.9418 0014246 161.4790 294.9512  0.99209636164908
Source of the keplerian elements: AFSPC